Hourly Weather Kistenli-Ivanovka

Today, 21 April, Wednesday

Time Temperature Precipitation Wind Pressure Humidity
00:00 +2°C° 0 mm 2 mps 744 mmHg 48%
01:00 +2°C° 0 mm 2 mps 744 mmHg 51%
02:00 0°C° 0 mm 3 mps 744 mmHg 52%
03:00 0°C° 0 mm 3 mps 744 mmHg 53%
04:00 -1°C° 0 mm 3 mps 744 mmHg 54%
05:00 0°C° 0 mm 3 mps 744 mmHg 52%
06:00 -1°C° 0 mm 4 mps 744 mmHg 50%
07:00 0°C° 0 mm 4 mps 744 mmHg 47%
08:00 +1°C° 0 mm 5 mps 744 mmHg 43%
09:00 +3°C° 0 mm 6 mps 744 mmHg 38%
10:00 +4°C° 0 mm 7 mps 744 mmHg 34%
11:00 +5°C° 0 mm 7 mps 744 mmHg 32%
12:00 +6°C° 0 mm 7 mps 744 mmHg 30%
13:00 +8°C° 0 mm 7 mps 744 mmHg 28%
14:00 +9°C° 0 mm 7 mps 743 mmHg 29%
15:00 +9°C° 0 mm 7 mps 743 mmHg 29%
16:00 +9°C° 0 mm 7 mps 742 mmHg 29%
17:00 +9°C° 0 mm 7 mps 742 mmHg 32%
18:00 +8°C° 0 mm 7 mps 742 mmHg 35%
19:00 +8°C° 0 mm 6 mps 742 mmHg 38%
20:00 +7°C° 0 mm 6 mps 742 mmHg 39%
21:00 +7°C° 0 mm 6 mps 742 mmHg 40%
22:00 +6°C° 0 mm 7 mps 742 mmHg 42%
23:00 +5°C° 0.1 mm 7 mps 742 mmHg 48%

Tomorrow, 22 April, Thursday

Time Temperature Precipitation Wind Pressure Humidity
00:00 +4°C° 0.1 mm 7 mps 742 mmHg 54%
01:00 +4°C° 0.1 mm 7 mps 742 mmHg 60%
02:00 +3°C° 0.1 mm 7 mps 742 mmHg 64%
03:00 +3°C° 0.1 mm 7 mps 743 mmHg 67%
04:00 +2°C° 0.1 mm 6 mps 743 mmHg 71%
05:00 +2°C° 0.2 mm 6 mps 743 mmHg 78%
06:00 +1°C° 0.2 mm 6 mps 743 mmHg 86%
07:00 +1°C° 0.2 mm 6 mps 743 mmHg 94%
08:00 +1°C° 0.3 mm 6 mps 743 mmHg 94%
09:00 +1°C° 0.3 mm 6 mps 743 mmHg 94%
10:00 +1°C° 0.3 mm 6 mps 744 mmHg 94%
11:00 +2°C° 0.1 mm 6 mps 744 mmHg 88%
12:00 +2°C° 0.1 mm 6 mps 744 mmHg 83%
13:00 +2°C° 0.1 mm 6 mps 744 mmHg 77%
14:00 +2°C° 0.1 mm 6 mps 744 mmHg 78%
15:00 +2°C° 0.1 mm 5 mps 744 mmHg 78%
16:00 +2°C° 0.1 mm 5 mps 744 mmHg 79%
17:00 +1°C° 0.4 mm 5 mps 744 mmHg 83%
18:00 +1°C° 0.4 mm 5 mps 744 mmHg 88%
19:00 +1°C° 0.4 mm 5 mps 743 mmHg 92%
20:00 +1°C° 1.5 mm 5 mps 743 mmHg 94%
21:00 0°C° 1.5 mm 4 mps 743 mmHg 95%
22:00 0°C° 1.5 mm 4 mps 743 mmHg 97%
23:00 0°C° 1.4 mm 4 mps 743 mmHg 97%

Day after tomorrow, 23 April, Friday

Time Temperature Precipitation Wind Pressure Humidity
00:00 +1°C° 1.4 mm 3 mps 743 mmHg 98%
01:00 0°C° 1.4 mm 3 mps 742 mmHg 98%
02:00 +1°C° 0.5 mm 3 mps 742 mmHg 98%
03:00 +1°C° 0.5 mm 3 mps 742 mmHg 98%
04:00 +2°C° 0.5 mm 2 mps 742 mmHg 98%
05:00 +2°C° 0 mm 2 mps 742 mmHg 98%
06:00 +3°C° 0 mm 2 mps 742 mmHg 98%
07:00 +4°C° 0 mm 1 mps 742 mmHg 98%
08:00 +4°C° 0 mm 2 mps 742 mmHg 93%
09:00 +6°C° 0 mm 2 mps 742 mmHg 87%
10:00 +7°C° 0 mm 3 mps 742 mmHg 82%
11:00 +8°C° 0 mm 3 mps 742 mmHg 73%
12:00 +10°C° 0 mm 3 mps 741 mmHg 64%
13:00 +12°C° 0 mm 3 mps 741 mmHg 55%
14:00 +12°C° 0 mm 3 mps 741 mmHg 53%
15:00 +12°C° 0 mm 3 mps 740 mmHg 52%
16:00 +13°C° 0 mm 3 mps 740 mmHg 50%
17:00 +12°C° 0 mm 3 mps 740 mmHg 54%
18:00 +11°C° 0 mm 4 mps 740 mmHg 58%
19:00 +10°C° 0 mm 4 mps 740 mmHg 63%
20:00 +8°C° 0 mm 5 mps 740 mmHg 70%
21:00 +7°C° 0 mm 5 mps 739 mmHg 78%
22:00 +6°C° 0 mm 5 mps 739 mmHg 85%
23:00 +6°C° 0.3 mm 4 mps 739 mmHg 88%

24 April, Saturday

Time Temperature Precipitation Wind Pressure Humidity
00:00 +5°C° 0.3 mm 3 mps 738 mmHg 90%
01:00 +6°C° 0.3 mm 2 mps 738 mmHg 92%
02:00 +5°C° 0.5 mm 3 mps 737 mmHg 92%
03:00 +5°C° 0.5 mm 3 mps 737 mmHg 92%
04:00 +5°C° 0.5 mm 4 mps 736 mmHg 92%
05:00 +5°C° 0.4 mm 4 mps 736 mmHg 91%
06:00 +5°C° 0.4 mm 5 mps 735 mmHg 90%
07:00 +5°C° 0.4 mm 5 mps 735 mmHg 90%
08:00 +5°C° 0.3 mm 5 mps 734 mmHg 89%
09:00 +5°C° 0.3 mm 5 mps 734 mmHg 89%
10:00 +5°C° 0.3 mm 5 mps 733 mmHg 89%
11:00 +5°C° 0.5 mm 5 mps 733 mmHg 90%
12:00 +5°C° 0.5 mm 4 mps 733 mmHg 91%
13:00 +4°C° 0.5 mm 4 mps 732 mmHg 92%
14:00 +4°C° 0.6 mm 4 mps 732 mmHg 92%
15:00 +4°C° 0.6 mm 3 mps 732 mmHg 93%
16:00 +4°C° 0.6 mm 3 mps 732 mmHg 93%
17:00 +4°C° 0.3 mm 3 mps 732 mmHg 94%
18:00 +5°C° 0.3 mm 2 mps 732 mmHg 94%
19:00 +5°C° 0.3 mm 2 mps 732 mmHg 94%
20:00 +5°C° 0.5 mm 2 mps 732 mmHg 95%
21:00 +5°C° 0.5 mm 2 mps 732 mmHg 95%
22:00 +5°C° 0.5 mm 2 mps 731 mmHg 96%
23:00 +5°C° 0.1 mm 2 mps 731 mmHg 96%

25 April, Sunday

Time Temperature Precipitation Wind Pressure Humidity
00:00 +5°C° 0.1 mm 2 mps 731 mmHg 96%
01:00 +5°C° 0.1 mm 2 mps 731 mmHg 96%
02:00 +5°C° 0 mm 2 mps 732 mmHg 95%
03:00 +4°C° 0 mm 2 mps 732 mmHg 94%
04:00 +4°C° 0 mm 2 mps 732 mmHg 93%
05:00 +4°C° 0.1 mm 3 mps 732 mmHg 93%
06:00 +4°C° 0.1 mm 4 mps 731 mmHg 93%
07:00 +4°C° 0.1 mm 4 mps 731 mmHg 93%
08:00 +5°C° 0.3 mm 5 mps 731 mmHg 94%
09:00 +5°C° 0.3 mm 5 mps 731 mmHg 94%
10:00 +5°C° 0.3 mm 6 mps 731 mmHg 94%
11:00 +6°C° 0 mm 7 mps 732 mmHg 80%
12:00 +8°C° 0 mm 7 mps 732 mmHg 66%
13:00 +10°C° 0 mm 8 mps 732 mmHg 52%
14:00 +10°C° 0 mm 7 mps 733 mmHg 49%
15:00 +10°C° 0 mm 7 mps 733 mmHg 47%
16:00 +10°C° 0 mm 6 mps 733 mmHg 44%
17:00 +9°C° 0.1 mm 6 mps 733 mmHg 52%
18:00 +8°C° 0.1 mm 5 mps 734 mmHg 59%
19:00 +7°C° 0.1 mm 4 mps 734 mmHg 66%
20:00 +7°C° 0 mm 4 mps 734 mmHg 69%
21:00 +7°C° 0 mm 4 mps 734 mmHg 72%
22:00 +6°C° 0 mm 4 mps 734 mmHg 75%
23:00 +6°C° 0 mm 4 mps 734 mmHg 76%

26 April, Monday

Time Temperature Precipitation Wind Pressure Humidity
00:00 +7°C° 0 mm 3 mps 734 mmHg 77%
01:00 +7°C° 0 mm 3 mps 734 mmHg 78%
02:00 +5°C° 0 mm 3 mps 734 mmHg 79%
03:00 +5°C° 0 mm 3 mps 734 mmHg 81%
04:00 +6°C° 0 mm 2 mps 734 mmHg 82%
05:00 +5°C° 0.1 mm 3 mps 734 mmHg 84%
06:00 +5°C° 0.1 mm 3 mps 734 mmHg 86%
07:00 +5°C° 0.1 mm 3 mps 734 mmHg 88%
08:00 +5°C° 0.3 mm 3 mps 734 mmHg 89%
09:00 +5°C° 0.3 mm 3 mps 733 mmHg 90%
10:00 +5°C° 0.3 mm 3 mps 733 mmHg 91%
11:00 +5°C° 0.7 mm 3 mps 733 mmHg 90%
12:00 +6°C° 0.7 mm 2 mps 732 mmHg 90%
13:00 +7°C° 0.7 mm 1 mps 732 mmHg 89%
14:00 +7°C° 0.3 mm 1 mps 732 mmHg 89%
15:00 +7°C° 0.3 mm 1 mps 732 mmHg 89%
16:00 +7°C° 0.3 mm 1 mps 731 mmHg 90%
17:00 +7°C° 0 mm 1 mps 731 mmHg 90%
18:00 +7°C° 0 mm 1 mps 731 mmHg 91%
19:00 +6°C° 0 mm 0 mps 731 mmHg 91%
20:00 +7°C° 0 mm 1 mps 731 mmHg 92%
21:00 +7°C° 0 mm 1 mps 730 mmHg 92%
22:00 +6°C° 0 mm 1 mps 730 mmHg 93%
23:00 +6°C° 0 mm 1 mps 730 mmHg 93%
Show more

We Need Your Consent

Meteoprog and our Service Providers may store and access personal data such as cookies, device identifiers or other similar technologies on your device and process such data to personalise content and ads, as well as provide social media features and to analyse the traffic.

  • Store and/or access information on your device

    Cookies, device identifiers or other information can be stored or accessed on your device for the purposes indicated above.

  • Personalised ads and content, ad and content measurement, audience insights, and products development

    Ads and content can be personalised based on a profile. More data can be added to better personalise ads and content. Ad and content performance can be measured. Insights about the audience who saw the ads and content can be derived. Such data can be used to develop or improve user’s experience, systems and software.

By clicking ‘I Agree’ you will allow the use of indicated cookies, device identifiers, web beacons or other similar technologies. Your settings can be changed in the browser on your device.

For certain purposes, legitimate interests may be relied on, rather than consent. You can read more about this in our Privacy and Cookie Policy.